GW4207 Weather Reports


time (UTC)temp
C
wind
direction
speed
KPH
gust
KPH
rain 1hr
cm
rain 24hr
cm
rain mn
cm
humidity
%
barometer
mb
20260506231255 12 107 0.0 6.4 0.00 0.00 0.00 54 1012.4
20260506230756 12 52 0.0 6.4 0.00 0.00 0.00 52 1012.3
20260506230516 12 29 3.2 6.4 0.00 0.00 0.00 50 1012.5
20260506225756 12 42 3.2 6.4 0.00 0.00 0.00 50 1012.5
20260506225300 12 324 1.6 6.4 0.00 0.00 0.00 50 1012.1
20260506224759 12 57 4.8 6.4 0.00 0.00 0.00 50 1012.4
20260506224253 12 230 0.0 4.8 0.00 0.00 0.00 51 1012.4
20260506223755 13 185 3.2 4.8 0.00 0.00 0.00 51 1012.2
20260506223253 13 205 0.0 4.8 0.00 0.00 0.00 52 1012.4
20260506222753 13 56 1.6 4.8 0.00 0.00 0.00 52 1012.4
20260506222252 13 80 0.0 9.7 0.00 0.00 0.00 52 1012.5
20260506221758 13 84 4.8 9.7 0.00 0.00 0.00 52 1012.4
20260506221253 13 331 0.0 4.8 0.00 0.00 0.00 52 1012.1
20260506220753 13 119 0.0 6.4 0.00 0.00 0.00 51 1012.3
20260506220516 13 12 3.2 6.4 0.00 0.00 0.00 51 1012.3
20260506215752 13 31 0.0 6.4 0.00 0.00 0.00 51 1012.3
20260506215734 13 351 3.2 6.4 0.00 0.00 0.00 52 1012.2
20260506214759 13 29 3.2 8.0 0.00 0.00 0.00 52 1011.9
20260506214250 13 54 4.8 8.0 0.00 0.00 0.00 52 1012.3
20260506213751 13 208 3.2 4.8 0.00 0.00 0.00 53 1012.5
20260506213250 13 279 0.0 6.4 0.00 0.00 0.00 53 1012.1
20260506212751 13 37 1.6 6.4 0.00 0.00 0.00 52 1012.4
20260506212249 13 151 3.2 6.4 0.00 0.00 0.00 52 1012.1
20260506212017 13 119 3.2 6.4 0.00 0.00 0.00 52 1012.2
20260506211249 13 41 3.2 6.4 0.00 0.00 0.00 52 1012.2
20260506210750 13 34 1.6 6.4 0.00 0.00 0.00 51 1012.2
20260506210248 13 126 0.0 4.8 0.00 0.00 0.00 53 1012.4
20260506205749 13 45 3.2 4.8 0.00 0.00 0.00 55 1012.2
20260506205248 13 60 0.0 6.4 0.00 0.00 0.00 55 1012.1
20260506204759 13 315 0.0 6.4 0.00 0.00 0.00 54 1012.2
20260506204251 13 69 0.0 4.8 0.00 0.00 0.00 55 1012.0
20260506203748 13 100 1.6 4.8 0.00 0.00 0.00 56 1011.8
20260506203247 13 77 0.0 6.4 0.00 0.00 0.00 56 1012.1
20260506202748 13 44 0.0 6.4 0.00 0.00 0.00 57 1012.1
20260506202245 13 80 0.0 6.4 0.00 0.00 0.00 56 1012.2
20260506201746 13 91 1.6 8.0 0.00 0.00 0.00 56 1012.2
20260506201253 13 56 3.2 8.0 0.00 0.00 0.00 57 1012.4
20260506200746 14 46 3.2 6.4 0.00 0.00 0.00 58 1012.2
20260506200244 14 58 1.6 6.4 0.00 0.00 0.00 57 1012.3
20260506195745 14 320 1.6 6.4 0.00 0.00 0.00 55 1012.5
20260506195243 14 41 1.6 4.8 0.00 0.00 0.00 53 1012.4
20260506194745 14 339 0.0 3.2 0.00 0.00 0.00 52 1012.6
20260506194254 13 25 0.0 6.4 0.00 0.00 0.00 54 1012.4
20260506193749 13 27 1.6 6.4 0.00 0.00 0.00 54 1012.6
20260506193241 13 98 0.0 4.8 0.00 0.00 0.00 56 1012.4
20260506192743 13 295 0.0 6.4 0.00 0.00 0.00 56 1012.7
20260506192500 13 99 3.2 6.4 0.00 0.00 0.00 56 1012.5
20260506191742 13 183 3.2 6.4 0.00 0.00 0.00 57 1012.7
20260506191240 13 358 4.8 6.4 0.00 0.00 0.00 57 1012.7
20260506190743 13 76 3.2 8.0 0.00 0.00 0.00 57 1012.8
20260506190246 13 61 3.2 8.0 0.00 0.00 0.00 57 1012.9
20260506185740 13 36 6.4 6.4 0.00 0.00 0.00 54 1013.0
20260506185239 12 124 0.0 8.0 0.00 0.00 0.00 54 1013.1
20260506184959 12 43 1.6 8.0 0.00 0.00 0.00 55 1012.8
20260506184238 12 35 6.4 9.7 0.00 0.00 0.00 55 1012.9
20260506184006 12 91 4.8 9.7 0.00 0.00 0.00 55 1012.7
20260506183241 12 150 0.0 6.4 0.00 0.00 0.00 55 1012.8
20260506182739 12 76 1.6 6.4 0.00 0.00 0.00 55 1012.4
20260506182237 12 37 1.6 6.4 0.00 0.00 0.00 56 1012.6
20260506181738 12 49 3.2 8.0 0.00 0.00 0.00 55 1012.8
20260506181508 12 187 3.2 9.7 0.00 0.00 0.00 54 1012.5
20260506181000 12 110 1.6 9.7 0.00 0.00 0.00 54 1012.5
20260506180235 12 65 0.0 9.7 0.00 0.00 0.00 56 1012.5
20260506175744 12 165 3.2 16.1 0.00 0.00 0.00 56 1012.6
20260506175455 12 49 0.0 16.1 0.00 0.00 0.00 55 1012.4
20260506174736 12 23 0.0 6.4 0.00 0.00 0.00 57 1012.8
20260506174507 12 72 1.6 6.4 0.00 0.00 0.00 58 1012.9
20260506173735 12 54 3.2 11.3 0.00 0.00 0.00 59 1012.6
20260506173243 12 57 3.2 11.3 0.00 0.00 0.00 59 1012.8
20260506172735 12 5 4.8 6.4 0.00 0.00 0.00 56 1013.1
20260506172233 12 35 4.8 6.4 0.00 0.00 0.00 58 1012.8
20260506171958 12 49 1.6 6.4 0.00 0.00 0.00 58 1013.2
20260506171453 12 359 0.0 4.8 0.00 0.00 0.00 56 1013.0
20260506170734 12 44 0.0 4.8 0.00 0.00 0.00 56 1013.1
20260506170232 12 43 1.6 8.0 0.00 0.00 0.00 56 1013.1
20260506165740 12 32 3.2 8.0 0.00 0.00 0.00 56 1013.1
20260506165232 12 53 4.8 8.0 0.00 0.00 0.00 55 1013.0
20260506164733 12 24 3.2 8.0 0.00 0.00 0.00 55 1012.8
20260506164231 12 116 1.6 8.0 0.00 0.00 0.00 56 1012.9
20260506163732 12 30 3.2 8.0 0.00 0.00 0.00 57 1013.0
20260506163231 12 126 0.0 4.8 0.00 0.00 0.00 57 1013.0
20260506162741 12 52 3.2 6.4 0.00 0.00 0.00 58 1012.9
20260506162230 12 71 0.0 6.4 0.00 0.00 0.00 59 1012.8
20260506161951 12 0 3.2 6.4 0.00 0.00 0.00 60 1013.0
20260506161452 12 40 3.2 12.9 0.00 0.00 0.00 60 1012.6
20260506160733 12 35 3.2 12.9 0.00 0.00 0.00 60 1012.6
20260506160453 12 30 4.8 9.7 0.00 0.00 0.00 59 1012.7
20260506155729 12 238 8.0 8.0 0.00 0.00 0.00 58 1013.0
20260506155207 12 44 4.8 9.7 0.00 0.00 0.00 59 1012.9
20260506154707 12 63 3.2 8.0 0.00 0.00 0.00 59 1012.5
20260506154451 12 31 3.2 8.0 0.00 0.00 0.00 59 1012.6
20260506153709 12 235 0.0 8.0 0.00 0.00 0.00 62 1012.6
20260506153200 12 85 3.2 6.4 0.00 0.00 0.00 63 1012.6
20260506152921 12 346 0.0 6.4 0.00 0.00 0.00 64 1012.5
20260506152149 11 341 1.6 6.4 0.00 0.00 0.00 65 1012.4
20260506151645 11 10 3.2 8.0 0.00 0.00 0.00 65 1012.5
20260506151146 11 184 0.0 8.0 0.00 0.00 0.00 66 1012.4
20260506150853 11 182 0.0 6.4 0.00 0.00 0.00 65 1012.3
20260506150129 11 7 3.2 9.7 0.00 0.00 0.00 65 1012.5
20260506145851 11 115 1.6 9.7 0.00 0.00 0.00 65 1012.3
20260506145204 10 69 0.0 6.4 0.00 0.00 0.00 64 1012.1
20260506145154 11 77 3.2 8.0 0.00 0.00 0.00 62 1012.2
20260506144121 10 168 0.0 6.4 0.00 0.00 0.00 62 1012.2
20260506143616 10 40 4.8 6.4 0.00 0.00 0.00 63 1012.1
20260506143112 10 55 3.2 6.4 0.00 0.00 0.00 64 1012.2
20260506142611 10 97 1.6 8.0 0.00 0.00 0.00 63 1012.0
20260506142109 10 34 3.2 8.0 0.00 0.00 0.00 62 1012.1
20260506141559 10 63 1.6 8.0 0.00 0.00 0.00 63 1012.1
20260506141057 10 354 1.6 8.0 0.00 0.00 0.00 63 1012.0
20260506140558 9 133 3.2 6.4 0.00 0.00 0.00 62 1011.9
20260506140111 9 60 1.6 8.0 0.00 0.00 0.00 61 1012.0
20260506140043 9 160 0.0 4.8 0.00 0.00 0.00 61 1012.2
20260506134945 9 93 0.0 9.7 0.00 0.00 0.00 61 1012.0
20260506134454 9 236 0.0 9.7 0.00 0.00 0.00 62 1012.0
20260506134234 9 72 0.0 9.7 0.00 0.00 0.00 62 1011.9
20260506133437 9 62 1.6 9.7 0.00 0.00 0.00 62 1011.8
20260506132934 9 46 1.6 9.7 0.00 0.00 0.00 62 1012.0
20260506132444 9 31 3.2 8.0 0.00 0.00 0.00 63 1011.7
20260506131933 8 62 6.4 8.0 0.00 0.00 0.00 63 1011.6
20260506131434 8 135 0.0 6.4 0.00 0.00 0.00 64 1011.8
20260506130932 8 50 3.2 11.3 0.00 0.00 0.00 64 1011.6
20260506130433 8 99 1.6 11.3 0.00 0.00 0.00 65 1011.4
20260506125932 8 78 4.8 6.4 0.00 0.00 0.00 65 1011.2
20260506125432 8 64 3.2 6.4 0.00 0.00 0.00 65 1011.6
20260506124928 8 44 3.2 8.0 0.00 0.00 0.00 66 1011.4
20260506124426 8 112 4.8 6.4 0.00 0.00 0.00 66 1011.3
20260506123933 8 94 0.0 11.3 0.00 0.00 0.00 67 1011.5
20260506123420 7 91 1.6 11.3 0.00 0.00 0.00 67 1011.5
20260506122921 7 60 3.2 6.4 0.00 0.00 0.00 67 1011.3
20260506122417 7 152 0.0 8.0 0.00 0.00 0.00 68 1011.4
20260506121910 7 41 6.4 8.0 0.00 0.00 0.00 68 1011.0
20260506121403 7 105 3.2 6.4 0.00 0.00 0.00 68 1010.8
20260506120900 7 127 3.2 4.8 0.00 0.00 0.00 68 1010.7
20260506120404 7 87 1.6 4.8 0.00 0.00 0.00 68 1010.8
20260506115903 7 85 0.0 6.4 0.00 0.00 0.00 69 1010.5
20260506115410 6 110 0.0 6.4 0.00 0.00 0.00 69 1010.6
20260506114901 6 107 1.6 8.0 0.00 0.00 0.00 69 1010.3
20260506114839 6 255 0.0 8.0 0.00 0.00 0.00 69 1010.5
20260506113842 6 84 1.6 3.2 0.00 0.00 0.00 69 1010.6
20260506113346 6 96 1.6 3.2 0.00 0.00 0.00 69 1010.6
20260506112826 6 110 0.0 3.2 0.00 0.00 0.00 69 1010.3
20260506112324 6 78 0.0 3.2 0.00 0.00 0.00 69 1010.4
20260506112042 6 87 1.6 3.2 0.00 0.00 0.00 69 1010.0
20260506111549 6 84 3.2 3.2 0.00 0.00 0.00 69 1010.3
20260506110814 7 91 0.0 3.2 0.00 0.00 0.00 70 1010.1
20260506110530 7 96 3.2 0.0 0.00 0.00 0.00 70 1009.9
20260506105618 7 96 3.2 3.2 0.00 0.30 0.00 70 1009.9
20260506105334 7 129 0.0 3.2 0.00 0.30 0.00 70 1009.8
20260506104620 7 97 3.2 3.2 0.00 0.30 0.00 70 1009.8
20260506104116 7 80 3.2 6.4 0.00 0.30 0.00 70 1009.7
20260506103617 7 82 1.6 6.4 0.00 0.30 0.00 71 1009.7
20260506103115 7 95 1.6 3.2 0.00 0.30 0.00 71 1009.4
20260506102616 7 99 0.0 3.2 0.00 0.30 0.00 71 1009.6
20260506102339 7 89 1.6 3.2 0.00 0.30 0.00 71 1009.5
20260506102106 7 80 1.6 3.2 0.00 0.30 0.00 72 1009.5
20260506101114 7 75 0.0 4.8 0.00 0.30 0.00 72 1009.4
20260506100615 7 56 1.6 4.8 0.00 0.30 0.00 72 1009.2
20260506100113 7 83 1.6 3.2 0.00 0.30 0.00 72 1009.4
20260506095614 7 99 1.6 3.2 0.00 0.30 0.00 73 1009.5
20260506095113 7 124 0.0 3.2 0.00 0.30 0.00 73 1009.2
20260506094614 7 40 3.2 3.2 0.00 0.30 0.00 73 1009.1
20260506094558 7 77 0.0 3.2 0.00 0.30 0.00 73 1009.2
20260506093835 7 84 0.0 3.2 0.00 0.30 0.00 74 1008.8
20260506093112 7 101 1.6 3.2 0.00 0.30 0.00 74 1009.2
20260506092613 7 98 0.0 3.2 0.00 0.30 0.00 74 1008.9
20260506092111 7 89 0.0 3.2 0.00 0.30 0.00 74 1009.2
20260506091839 7 99 0.0 3.2 0.00 0.30 0.00 75 1009.2
20260506091334 7 106 0.0 3.2 0.00 0.30 0.00 75 1009.4
20260506090613 7 139 0.0 3.2 0.00 0.30 0.00 75 1009.3
20260506090111 7 82 1.6 3.2 0.00 0.30 0.00 76 1008.9
20260506085829 7 89 0.0 3.2 0.00 0.30 0.00 76 1009.2
20260506085110 7 89 0.0 3.2 0.00 0.30 0.00 76 1009.1
20260506084611 7 89 1.6 3.2 0.00 0.30 0.00 76 1008.5
20260506084121 7 94 0.0 3.2 0.00 0.30 0.00 77 1008.9
20260506083613 7 81 0.0 4.8 0.00 0.30 0.00 77 1009.1
20260506083109 7 77 0.0 4.8 0.00 0.30 0.00 77 1008.7
20260506082617 7 105 1.6 3.2 0.00 0.30 0.00 78 1008.8
20260506082610 7 96 1.6 4.8 0.00 0.30 0.00 77 1008.5
20260506081609 7 62 0.0 3.2 0.00 0.30 0.00 78 1008.5
20260506081109 7 156 0.0 3.2 0.00 0.30 0.00 78 1008.8
20260506080620 7 97 0.0 3.2 0.00 0.30 0.00 78 1008.8
20260506080107 7 89 1.6 3.2 0.00 0.30 0.00 78 1008.9
20260506073106 7 115 1.6 3.2 0.00 0.30 0.00 79 1008.4
20260506072825 7 89 0.0 3.2 0.00 0.30 0.00 79 1008.5
20260506072106 7 95 1.6 3.2 0.00 0.30 0.00 79 1008.4
20260506071606 7 104 0.0 3.2 0.00 0.30 0.00 79 1008.8
20260506071105 7 96 1.6 3.2 0.00 0.30 0.00 79 1008.8
20260506070618 7 89 1.6 1.6 0.00 0.30 0.00 79 1009.1
20260506070555 7 81 1.6 3.2 0.00 0.30 0.00 79 1008.9
20260506062103 7 89 0.0 3.2 0.00 0.30 0.00 79 1008.7
20260506061604 7 87 0.0 3.2 0.00 0.30 0.00 79 1009.3
20260506061102 7 89 0.0 3.2 0.00 0.30 0.00 79 1009.4
20260506060838 7 95 1.6 3.2 0.00 0.30 0.00 78 1009.4
20260506051059 7 84 0.0 3.2 0.00 0.30 0.00 78 1009.3
20260506050601 7 73 0.0 3.2 0.00 0.30 0.00 78 1008.9
20260506044823 7 83 1.6 3.2 0.00 0.30 0.00 78 1009.1
20260506044058 7 94 0.0 3.2 0.00 0.30 0.00 78 1009.2
20260506043559 7 96 1.6 3.2 0.00 0.30 0.00 78 1009.3
20260506043058 7 84 0.0 1.6 0.00 0.30 0.00 77 1009.3
20260506042559 7 92 1.6 3.2 0.00 0.30 0.00 77 1009.1
20260506042058 7 89 0.0 3.2 0.00 0.30 0.00 77 1009.2
20260506041610 7 98 3.2 3.2 0.00 0.30 0.00 77 1009.2
20260506041058 7 102 1.6 3.2 0.00 0.30 0.00 77 1009.3
20260506040821 7 94 0.0 3.2 0.00 0.30 0.00 77 1008.7
20260506040058 7 87 0.0 3.2 0.00 0.30 0.00 77 1008.7
20260506035558 7 100 1.6 3.2 0.00 0.30 0.61 77 1008.9
20260506035320 7 99 0.0 3.2 0.00 0.30 0.61 77 1009.4
20260506034557 7 77 1.6 3.2 0.00 0.30 0.61 77 1009.1
20260506034104 7 72 3.2 3.2 0.00 0.30 0.61 77 1009.1
20260506033557 7 78 1.6 3.2 0.00 0.30 0.61 77 1009.1
20260506033055 7 109 0.0 3.2 0.00 0.30 0.61 76 1009.2
20260506032557 7 77 0.0 3.2 0.00 0.30 0.61 76 1009.2
20260506032320 7 97 0.0 3.2 0.00 0.30 0.61 76 1008.8
20260506031623 7 112 3.2 3.2 0.00 0.30 0.61 76 1008.9
20260506031058 7 89 0.0 3.2 0.00 0.30 0.61 76 1008.7
20260506030816 7 95 1.6 3.2 0.00 0.30 0.61 76 1008.9
20260506030054 7 86 0.0 3.2 0.00 0.30 0.61 76 1008.4
20260506025555 7 93 1.6 3.2 0.03 0.30 0.61 76 1008.7
20260506025053 7 102 1.6 3.2 0.03 0.30 0.61 76 1008.8
20260506024606 7 93 1.6 3.2 0.05 0.30 0.61 75 1008.6
20260506024054 7 88 1.6 3.2 0.05 0.30 0.61 75 1009.1
20260506023654 7 84 1.6 3.2 0.08 0.30 0.61 75 1008.9
20260506022554 7 77 1.6 3.2 0.08 0.28 0.61 75 1008.7
20260506022052 7 84 1.6 3.2 0.08 0.28 0.61 75 1008.9
20260506022039 7 97 1.6 3.2 0.10 0.28 0.61 74 1008.8
20260506021052 7 87 1.6 3.2 0.10 0.28 0.61 74 1008.8
20260506020559 7 99 0.0 3.2 0.10 0.28 0.61 74 1008.8
20260506020052 7 98 1.6 3.2 0.10 0.28 0.61 74 1008.7
20260506015552 7 95 1.6 3.2 0.13 0.28 0.61 74 1008.8
20260506015051 8 99 1.6 3.2 0.15 0.28 0.58 73 1008.8
20260506014552 8 114 3.2 3.2 0.15 0.25 0.58 73 1008.6
20260506014050 8 94 3.2 3.2 0.15 0.23 0.56 73 1008.8
20260506013556 8 85 0.0 3.2 0.15 0.23 0.56 73 1008.8
20260506013049 8 94 1.6 3.2 0.15 0.23 0.53 72 1008.4
20260506012551 8 89 3.2 3.2 0.15 0.20 0.53 72 1008.8
20260506012049 8 68 0.0 3.2 0.18 0.20 0.53 71 1008.6
20260506011551 8 87 0.0 3.2 0.18 0.20 0.51 71 1008.7
20260506011049 8 85 1.6 3.2 0.15 0.18 0.51 71 1008.5
20260506010555 8 77 1.6 3.2 0.15 0.18 0.51 70 1008.2
20260506010049 9 93 0.0 1.6 0.15 0.18 0.51 70 1008.4
20260506005551 9 62 0.0 3.2 0.15 0.15 0.48 69 1008.3
20260506005048 10 109 0.0 3.2 0.13 0.13 0.46 69 1008.4
20260506004549 10 124 3.2 3.2 0.10 0.10 0.43 68 1008.6
20260506004048 10 112 0.0 3.2 0.08 0.10 0.41 68 1008.1
20260506003555 10 116 0.0 3.2 0.05 0.08 0.38 68 1008.5
20260506003048 10 95 0.0 3.2 0.05 0.05 0.38 67 1008.2
20260506002810 10 54 3.2 3.2 0.03 0.05 0.38 67 1008.4
20260506002048 10 89 0.0 3.2 0.03 0.05 0.36 67 1008.3
20260506001548 11 54 1.6 3.2 0.03 0.03 0.36 67 1008.5
20260506001046 11 59 0.0 3.2 0.03 0.03 0.36 67 1008.2
20260506000813 11 72 1.6 3.2 0.03 0.03 0.36 67 1008.1
20260506000312 11 76 0.0 3.2 0.00 0.03 0.33 66 1008.2
20260505235546 11 66 1.6 3.2 0.00 0.03 0.33 66 1007.9
20260505235313 11 68 0.0 3.2 0.00 0.00 0.33 67 1008.0
20260505234547 11 64 1.6 3.2 0.00 0.00 0.33 67 1008.2
20260505234045 11 44 0.0 3.2 0.00 0.00 0.33 68 1008.2
20260505233558 11 89 0.0 3.2 0.00 0.00 0.33 68 1008.1
20260505233044 11 47 1.6 3.2 0.00 0.00 0.33 68 1007.8
20260505232806 11 109 0.0 3.2 0.00 0.00 0.33 69 1007.9
20260505232305 11 44 0.0 3.2 0.00 0.00 0.33 68 1007.8